When you browse on this site, cookies collect data to enhance your experience and personalize the content and advertising you see.
Visit our Privacy Policy to learn more. By continuing to use the site, you agree to this use of cookies and data.
  • In France
  • List of Countries
  • For 7 days
  • Water Temperature
  • Satellite Maps
  • Weather Map
  • Weather Widgets
  • user-avatar
    Login

    Hourly Weather Ch'ŏngjin

    Today, 18 November, Sunday

    Time Temperature Precipitation Wind Pressure Humidity
    00:00 +3°C° 0 mm 3 mps 765 mmHg 49%
    01:00 +2°C° 0 mm 3 mps 765 mmHg 47%
    02:00 +2°C° 0 mm 3 mps 765 mmHg 45%
    03:00 +1°C° 0 mm 3 mps 765 mmHg 43%
    04:00 +1°C° 0 mm 3 mps 765 mmHg 42%
    05:00 +2°C° 0 mm 2 mps 765 mmHg 40%
    06:00 +2°C° 0 mm 2 mps 765 mmHg 39%
    07:00 +3°C° 0 mm 2 mps 765 mmHg 38%
    08:00 +4°C° 0 mm 2 mps 765 mmHg 36%
    09:00 +5°C° 0 mm 2 mps 765 mmHg 35%
    10:00 +6°C° 0 mm 2 mps 764 mmHg 35%
    11:00 +7°C° 0 mm 2 mps 764 mmHg 34%
    12:00 +8°C° 0 mm 2 mps 764 mmHg 34%
    13:00 +8°C° 0 mm 2 mps 763 mmHg 36%
    14:00 +8°C° 0 mm 3 mps 763 mmHg 37%
    15:00 +8°C° 0 mm 3 mps 762 mmHg 39%
    16:00 +6°C° 0 mm 2 mps 763 mmHg 46%
    17:00 +5°C° 0 mm 2 mps 763 mmHg 53%
    18:00 +4°C° 0 mm 1 mps 763 mmHg 59%
    19:00 +4°C° 0 mm 1 mps 763 mmHg 58%
    20:00 +4°C° 0 mm 1 mps 763 mmHg 57%
    21:00 +4°C° 0 mm 1 mps 763 mmHg 55%
    22:00 +4°C° 0 mm 1 mps 763 mmHg 54%
    23:00 +4°C° 0 mm 1 mps 763 mmHg 53%

    Tomorrow, 19 November, Monday

    Time Temperature Precipitation Wind Pressure Humidity
    00:00 +3°C° 0 mm 1 mps 764 mmHg 52%
    01:00 +3°C° 0 mm 1 mps 764 mmHg 55%
    02:00 +3°C° 0 mm 1 mps 764 mmHg 58%
    03:00 +2°C° 0 mm 2 mps 764 mmHg 61%
    04:00 +2°C° 0 mm 2 mps 764 mmHg 60%
    05:00 +1°C° 0 mm 3 mps 764 mmHg 59%
    06:00 0°C° 0 mm 3 mps 764 mmHg 57%
    07:00 0°C° 0 mm 4 mps 765 mmHg 54%
    08:00 0°C° 0 mm 4 mps 765 mmHg 50%
    09:00 +1°C° 0 mm 4 mps 765 mmHg 46%
    10:00 +3°C° 0 mm 4 mps 765 mmHg 43%
    11:00 +4°C° 0 mm 4 mps 766 mmHg 39%
    12:00 +5°C° 0 mm 4 mps 766 mmHg 36%
    13:00 +5°C° 0 mm 4 mps 765 mmHg 36%
    14:00 +5°C° 0 mm 4 mps 765 mmHg 36%
    15:00 +5°C° 0 mm 4 mps 765 mmHg 36%
    16:00 +4°C° 0 mm 4 mps 765 mmHg 43%
    17:00 +1°C° 0 mm 4 mps 766 mmHg 49%
    18:00 0°C° 0 mm 4 mps 766 mmHg 56%
    19:00 +1°C° 0 mm 3 mps 766 mmHg 58%
    20:00 +1°C° 0 mm 3 mps 767 mmHg 60%
    21:00 +1°C° 0 mm 3 mps 767 mmHg 61%
    22:00 +1°C° 0 mm 3 mps 767 mmHg 63%
    23:00 0°C° 0 mm 3 mps 767 mmHg 65%

    Day after tomorrow, 20 November, Tuesday

    Time Temperature Precipitation Wind Pressure Humidity
    00:00 +1°C° 0 mm 2 mps 767 mmHg 66%
    01:00 +1°C° 0 mm 2 mps 767 mmHg 67%
    02:00 +1°C° 0 mm 2 mps 767 mmHg 68%
    03:00 +1°C° 0 mm 1 mps 767 mmHg 68%
    04:00 +1°C° 0 mm 1 mps 767 mmHg 66%
    05:00 +1°C° 0 mm 1 mps 767 mmHg 63%
    06:00 +1°C° 0 mm 1 mps 767 mmHg 60%
    07:00 +2°C° 0 mm 1 mps 767 mmHg 55%
    08:00 +3°C° 0 mm 1 mps 767 mmHg 50%
    09:00 +4°C° 0 mm 1 mps 767 mmHg 46%
    10:00 +4°C° 0 mm 2 mps 767 mmHg 45%
    11:00 +4°C° 0 mm 3 mps 766 mmHg 45%
    12:00 +6°C° 0 mm 4 mps 765 mmHg 45%
    13:00 +5°C° 0.3 mm 4 mps 765 mmHg 54%
    14:00 +5°C° 0.3 mm 4 mps 764 mmHg 64%
    15:00 +3°C° 0.3 mm 5 mps 764 mmHg 73%
    16:00 +4°C° 0.2 mm 4 mps 764 mmHg 75%
    17:00 +4°C° 0.2 mm 4 mps 764 mmHg 78%
    18:00 +3°C° 0.2 mm 4 mps 764 mmHg 80%
    19:00 +3°C° 0 mm 4 mps 764 mmHg 79%
    20:00 +1°C° 0 mm 4 mps 764 mmHg 78%
    21:00 0°C° 0 mm 4 mps 765 mmHg 78%
    22:00 0°C° 0 mm 5 mps 765 mmHg 75%
    23:00 -1°C° 0 mm 5 mps 766 mmHg 73%

    21 November, Wednesday

    Time Temperature Precipitation Wind Pressure Humidity
    00:00 -2°C° 0 mm 6 mps 766 mmHg 70%
    01:00 -3°C° 0 mm 6 mps 766 mmHg 69%
    02:00 -3°C° 0 mm 6 mps 767 mmHg 68%
    03:00 -4°C° 0 mm 7 mps 767 mmHg 67%
    04:00 -4°C° 0 mm 7 mps 768 mmHg 65%
    05:00 -6°C° 0 mm 7 mps 768 mmHg 64%
    06:00 -5°C° 0 mm 6 mps 768 mmHg 63%
    07:00 -5°C° 0 mm 6 mps 769 mmHg 57%
    08:00 -5°C° 0 mm 6 mps 769 mmHg 50%
    09:00 -4°C° 0 mm 6 mps 769 mmHg 44%
    10:00 -3°C° 0 mm 6 mps 769 mmHg 40%
    11:00 -1°C° 0 mm 5 mps 768 mmHg 37%
    12:00 0°C° 0 mm 5 mps 768 mmHg 33%
    13:00 0°C° 0 mm 5 mps 767 mmHg 35%
    14:00 0°C° 0 mm 4 mps 767 mmHg 37%
    15:00 0°C° 0 mm 4 mps 766 mmHg 40%
    16:00 0°C° 0 mm 3 mps 766 mmHg 48%
    17:00 -1°C° 0 mm 3 mps 766 mmHg 57%
    18:00 -3°C° 0 mm 2 mps 766 mmHg 65%
    19:00 -3°C° 0 mm 2 mps 766 mmHg 66%
    20:00 -3°C° 0 mm 2 mps 767 mmHg 66%
    21:00 -3°C° 0 mm 2 mps 767 mmHg 67%
    22:00 -3°C° 0 mm 2 mps 766 mmHg 65%
    23:00 -3°C° 0 mm 2 mps 766 mmHg 63%

    22 November, Thursday

    Time Temperature Precipitation Wind Pressure Humidity
    00:00 -4°C° 0 mm 2 mps 766 mmHg 61%
    01:00 -2°C° 0 mm 1 mps 766 mmHg 57%
    02:00 -2°C° 0 mm 1 mps 766 mmHg 54%
    03:00 -2°C° 0 mm 1 mps 765 mmHg 50%
    04:00 -4°C° 0 mm 2 mps 765 mmHg 51%
    05:00 -4°C° 0 mm 2 mps 765 mmHg 52%
    06:00 -4°C° 0 mm 2 mps 764 mmHg 53%
    07:00 -4°C° 0 mm 3 mps 764 mmHg 51%
    08:00 -2°C° 0 mm 3 mps 764 mmHg 49%
    09:00 -2°C° 0 mm 4 mps 764 mmHg 47%
    10:00 -2°C° 0 mm 4 mps 764 mmHg 43%
    11:00 -1°C° 0 mm 5 mps 764 mmHg 39%
    12:00 -2°C° 0 mm 6 mps 763 mmHg 35%
    13:00 -2°C° 0 mm 6 mps 763 mmHg 36%
    14:00 -3°C° 0 mm 7 mps 763 mmHg 36%
    15:00 -4°C° 0 mm 8 mps 763 mmHg 37%
    16:00 -6°C° 0 mm 8 mps 764 mmHg 39%
    17:00 -7°C° 0 mm 8 mps 765 mmHg 41%
    18:00 -8°C° 0 mm 8 mps 765 mmHg 44%
    19:00 -9°C° 0 mm 7 mps 766 mmHg 45%
    20:00 -9°C° 0 mm 6 mps 766 mmHg 46%
    21:00 -9°C° 0 mm 6 mps 767 mmHg 48%
    22:00 -8°C° 0 mm 5 mps 767 mmHg 48%
    23:00 -10°C° 0 mm 5 mps 767 mmHg 49%

    23 November, Friday

    Time Temperature Precipitation Wind Pressure Humidity
    00:00 -9°C° 0 mm 4 mps 767 mmHg 49%
    01:00 -9°C° 0 mm 4 mps 767 mmHg 49%
    02:00 -9°C° 0 mm 4 mps 767 mmHg 49%
    03:00 -8°C° 0 mm 3 mps 768 mmHg 49%
    04:00 -8°C° 0 mm 3 mps 768 mmHg 49%
    05:00 -8°C° 0 mm 3 mps 768 mmHg 48%
    06:00 -8°C° 0 mm 3 mps 767 mmHg 48%
    07:00 -6°C° 0 mm 2 mps 767 mmHg 43%
    08:00 -5°C° 0 mm 2 mps 767 mmHg 38%
    09:00 -4°C° 0 mm 2 mps 767 mmHg 34%
    10:00 -2°C° 0 mm 2 mps 767 mmHg 31%
    11:00 -1°C° 0 mm 2 mps 766 mmHg 27%
    12:00 +1°C° 0 mm 3 mps 765 mmHg 24%
    13:00 +1°C° 0 mm 3 mps 765 mmHg 26%
    14:00 +2°C° 0 mm 3 mps 764 mmHg 28%
    15:00 +1°C° 0 mm 4 mps 763 mmHg 30%
    16:00 0°C° 0 mm 4 mps 763 mmHg 39%
    17:00 -1°C° 0 mm 4 mps 763 mmHg 47%
    18:00 -2°C° 0 mm 4 mps 763 mmHg 55%
    19:00 -2°C° 0 mm 4 mps 763 mmHg 58%
    20:00 -2°C° 0 mm 4 mps 763 mmHg 60%
    21:00 0°C° 0 mm 3 mps 762 mmHg 63%
    22:00 0°C° 0 mm 3 mps 762 mmHg 66%
    23:00 0°C° 0 mm 3 mps 762 mmHg 68%
    Show more